Date,TemperatureHighF,TemperatureAvgF,TemperatureLowF,DewpointHighF,DewpointAvgF,DewpointLowF,HumidityHigh,HumidityAvg,HumidityLow,PressureMaxIn,PressureMinIn,WindSpeedMaxMPH,WindSpeedAvgMPH,GustSpeedMaxMPH,PrecipitationSumIn
2013-3-1,41,30,26,32,27,23,97,87,69,0.00,40.00,25,10,40,0.00
2013-3-2,49,38,27,29,22,14,88,55,34,0.00,40.00,6,2,12,0.00
2013-3-3,40,33,29,32,29,21,100,87,47,0.00,40.00,15,7,32,0.00
2013-3-4,28,27,26,28,27,26,100,100,100,0.00,40.00,21,17,40,0.00
2013-3-5,42,38,36,19,13,1,47,37,17,0.00,40.00,8,7,35,0.00
2013-3-6,44,38,29,31,23,18,100,56,41,0.00,40.00,13,7,35,0.00
2013-3-7,40,31,24,34,28,18,100,89,41,0.00,40.00,7,3,20,0.00
2013-3-8,38,30,27,32,29,27,100,94,69,0.00,40.00,5,3,17,0.00
2013-3-9,28,26,22,28,24,13,100,94,67,0.00,40.00,21,7,29,0.00
2013-3-10,37,28,21,23,15,11,70,57,43,0.00,40.00,14,7,28,0.00
2013-3-11,35,31,28,28,20,12,84,66,47,0.00,40.00,21,14,38,0.00
2013-3-12,44,35,30,32,29,27,97,79,58,0.00,40.00,18,9,36,0.00
2013-3-13,50,43,36,31,28,24,75,57,43,0.00,40.00,11,4,19,0.00
2013-3-14,58,50,44,25,22,17,37,33,27,0.00,40.00,7,4,17,0.00
2013-3-15,54,48,43,26,22,19,44,36,31,0.00,40.00,16,7,28,0.00
2013-3-16,43,38,35,25,21,14,61,49,37,0.00,40.00,18,10,38,0.00
2013-3-17,37,27,22,31,22,13,100,82,48,0.00,40.00,22,15,45,0.00
2013-3-18,31,25,19,19,16,12,93,70,53,0.00,40.00,18,11,35,0.00
2013-3-19,40,31,23,16,3,-12,62,31,16,0.00,40.00,18,6,30,0.00
2013-3-20,37,35,31,36,28,11,100,79,39,0.00,40.00,8,4,27,0.00
2013-3-21,37,27,19,34,21,7,100,79,59,0.00,40.00,24,13,45,0.00
2013-3-22,18,15,11,16,11,7,97,85,62,0.00,40.00,17,10,40,0.00
2013-3-23,17,12,9,13,9,4,95,87,73,0.00,40.00,20,12,29,0.00
2013-3-24,22,15,11,15,8,1,87,75,62,0.00,40.00,12,7,24,0.00
2013-3-25,37,25,11,23,15,1,89,66,46,0.00,40.00,6,3,15,0.00
2013-3-26,45,36,31,32,23,18,95,60,40,0.00,40.00,12,4,26,0.00
2013-3-27,49,40,31,30,24,18,83,54,37,0.00,40.00,6,4,15,0.00
2013-3-28,52,44,39,29,24,16,58,45,34,0.00,40.00,10,4,22,0.00
2013-3-29,46,42,37,35,29,26,91,61,51,0.00,40.00,14,8,26,0.00
2013-3-30,48,43,40,33,26,-100,59,53,41,0.00,40.00,10,7,23,0.00
2013-3-31,55,45,35,28,22,17,63,42,22,0.00,40.00,12,4,24,0.00